Regional Weather Roundup
Issued by NWS

Home | Current Version | Previous Version | Graphics & Text | Print | Product List | Glossary On
Versions: 1 2 3 4 5 6 7 8 9 10 11 12 13 14 15 16 17 18 19 20 21 22 23 24 25 26 27
000
ASUS45 KBOI 302010
RWRID
WEATHER ROUNDUP FOR IDAHO
NATIONAL WEATHER SERVICE BOISE ID
200 PM MDT THU OCT 30 2014

NOTE: "FAIR" INDICATES FEW OR NO CLOUDS BELOW 12000 FEET
WITH NO SIGNIFICANT WEATHER AND/OR OBSTRUCTIONS TO VISIBILITY

IDZ012-014-302100-
SOUTHWEST IDAHO


CITY           SKY/WX    TMP DP  RH WIND       PRES   REMARKS
BOISE          MOSUNNY   65  39  38 CALM      30.07F
CALDWELL       MOSUNNY   63  37  39 E7        30.09F
MOUNTAIN HOME  PTSUNNY   69  32  25 SE22G28   30.08F
$$

IDZ016-017-302100-
SOUTHCENTRAL IDAHO


CITY           SKY/WX    TMP DP  RH WIND       PRES   REMARKS
BURLEY         SUNNY     69  34  27 NE9       30.15F
JEROME         MOSUNNY   69  30  23 NE15      30.15F
TWIN FALLS     MOSUNNY   65  38  36 E8        30.15F
$$

IDZ019>023-302100-
SOUTHEAST IDAHO


CITY           SKY/WX    TMP DP  RH WIND       PRES   REMARKS
IDAHO FALLS    MOSUNNY   64  34  32 N6        30.25F
POCATELLO      SUNNY     66  32  28 NE7       30.22F
REXBURG        SUNNY     61  31  32 VRB3      30.25F
$$

IDZ006-010-011-018-031-032-302100-
CENTRAL IDAHO MOUNTAINS


CITY           SKY/WX    TMP DP  RH WIND       PRES   REMARKS
MCCALL         MOSUNNY   55  38  52 S3        30.12F
HAILEY         PTSUNNY   64  32  29 S9        30.23F
STANLEY          N/A     53  33  46 N7        30.23F
SALMON         MOSUNNY   54  32  43 CALM      30.19F
CHALLIS        MOSUNNY   54  30  40 CALM      30.22F
$$

IDZ002-004-006-007-026-302100-
NORTHERN IDAHO


CITY           SKY/WX    TMP DP  RH WIND       PRES   REMARKS
LEWISTON       CLOUDY    57  48  72 E5        30.02F
LOWELL           N/A     58  46  64 N3        30.08F
COEUR D`ALENE  CLOUDY    50  45  81 N12       30.06F
MULLAN PASS    FOG       38  38 100 SE9       30.13F VSB<1/4 WCI  31
$$



USA.gov is the U.S. government's official web portal to all federal, state and local government web resources and services.